Location: Unspecified
(0.0000°N, 0.0000°E)
Time: 07:44:48
(UTC+00:00)

Tiangong - Pass Details

Date: 29 July 2021
Orbit: 373 x 386 km, 41.5° (Epoch: 01 August)

Event Time Altitude Azimuth Distance (km) Brightness Sun altitude
Exits shadow 05:19:37 16° 230° (SW) 1,079 2.7 -11.1°
Maximum altitude 05:21:58 79° 316° (NW) 388 1.0 -10.5°
Drops below altitude 10° 05:25:06 10° 43° (NE) 1,386 5.0 -9.8°
Sets 05:27:10 0° 44° (NE) 2,238 6.2 -9.3°
